Weather History for Al Udeid, Qatar

Change the Weather History Date:

Wednesday, January 9, 2013

  Actual Average Record
Temperature  
Mean Temperature 70 °F -  
Max Temperature 77 °F - - ()
Min Temperature 63 °F - - ()
Cooling Degree Days 5    
Growing Degree Days 20 (Base 50)    
Moisture  
Dew Point 60 °F    
Average Humidity 69    
Maximum Humidity 89    
Minimum Humidity 56    
Precipitation  
Precipitation 0.00 in - - ()
Sea Level Pressure  
Sea Level Pressure 29.94 in    
Wind  
Wind Speed 7 mph ()    
Max Wind Speed 16 mph    
Max Gust Speed 23 mph    
Visibility 6.2 miles    
Events      
T = Trace of Precipitation, MM = Missing Value Source: Averaged Metar Reports

Daily Weather History Graph

Daily Weather History Graph

Search for Another Location

Airport:

Trip Planner

Search our weather history database for the weather conditions in past years. The results will help you decide how hot, cold, wet, or windy it might be!

Date:

Astronomy

Jan. 09, 2013 Rise Set
Actual Time 6:21 AM AST 5:02 PM AST
Civil Twilight 5:56 AM AST 5:26 PM AST
Nautical Twilight 5:28 AM AST 5:55 PM AST
Astronomical Twilight 5:00 AM AST 6:23 PM AST
Moon 3:35 AM AST (1/9) 2:39 PM AST (1/9)
Length of Visible Light 11h 29m
Length of Day
10h 40m
Waning Crescent, 9% of the Moon is Illuminated
Jan 9
Waning Crescent
Jan 11
New
Jan 19
First Quarter
Jan 27
Full
Feb 3
Last Quarter

Hourly Weather History & Observations

Time (AST) Temp. Dew Point Humidity Pressure Visibility Wind Dir Wind Speed Gust Speed Precip Events Conditions
12:55 AM 64.6 °F 50.4 °F 60% 29.98 in 6.2 mi North 4.6 mph - N/A   Clear
1:55 AM 64.8 °F 51.6 °F 62% 29.97 in 6.2 mi North 6.9 mph - N/A   Clear
2:55 AM 63.9 °F 52.5 °F 67% 29.97 in 6.2 mi North 8.1 mph - N/A   Clear
3:55 AM 63.7 °F 52.7 °F 67% 29.96 in 6.2 mi North 5.8 mph - N/A   Clear
4:55 AM 63.3 °F 53.1 °F 69% 29.97 in 6.2 mi North 6.9 mph - N/A   Clear
5:55 AM 63.5 °F 53.4 °F 70% 29.98 in 6.2 mi NNE 4.6 mph - N/A   Clear
6:55 AM 63.7 °F 54.7 °F 72% 30.00 in 6.2 mi NE 3.5 mph - N/A   Clear
7:55 AM 66.4 °F 56.5 °F 70% 30.02 in 6.2 mi ENE 3.5 mph - N/A   Clear
8:55 AM 71.8 °F 57.0 °F 60% 30.02 in 6.2 mi ENE 10.4 mph - N/A   Partly Cloudy
9:55 AM 75.0 °F 58.5 °F 56% 30.02 in 6.2 mi East 15.0 mph - N/A   Partly Cloudy
10:55 AM 76.1 °F 60.3 °F 58% 29.98 in 6.2 mi East 16.1 mph - N/A   Clear
11:55 AM 77.0 °F 61.3 °F 58% 29.95 in 6.2 mi ESE 13.8 mph - N/A   Clear
12:55 PM 77.0 °F 62.1 °F 60% 29.92 in 6.2 mi ESE 13.8 mph - N/A   Partly Cloudy
1:55 PM 77.5 °F 62.8 °F 60% 29.91 in 6.2 mi ESE 11.5 mph 23.0 mph N/A   Clear
2:55 PM 76.8 °F 63.9 °F 64% 29.89 in 6.2 mi East 11.5 mph - N/A   Clear
3:55 PM 75.4 °F 64.8 °F 69% 29.88 in 6.2 mi East 11.5 mph - N/A   Clear
4:55 PM 73.6 °F 63.7 °F 71% 29.88 in 6.2 mi East 8.1 mph - N/A   Clear
5:55 PM 71.8 °F 64.4 °F 77% 29.89 in 6.2 mi ENE 6.9 mph - N/A   Clear
6:55 PM 70.7 °F 64.8 °F 81% 29.91 in 6.2 mi East 8.1 mph - N/A   Clear
7:55 PM 69.8 °F 65.1 °F 85% 29.91 in 6.2 mi East 9.2 mph - N/A   Clear
9:55 PM 69.8 °F 65.1 °F 85% 29.90 in 6.2 mi East 8.1 mph - N/A   Clear
10:55 PM 69.3 °F 65.7 °F 88% 29.90 in 6.2 mi East 6.9 mph - N/A   Clear
11:55 PM 68.4 °F 65.1 °F 89% 29.88 in 6.2 mi East 5.8 mph - N/A   Clear